Regional Weather Roundup
Issued by NWS Cleveland, OH

Home | Current Version | Previous Version | Graphics & Text | Print | Product List | Glossary On
Versions: 1 2 3 4 5 6 7 8 9 10 11 12 13 14 15 16 17 18 19 20 21 22 23 24 25 26 27 28 29 30 31 32 33 34 35 36 37 38 39 40 41 42 43 44 45 46 47 48 49 50
000
ASUS41 KCLE 270202
RWRCLE
OHIO REGIONAL WEATHER ROUNDUP
NATIONAL WEATHER SERVICE CLEVELAND, OH
1000 PM EDT THU MAR 26 2015

NOTE: "FAIR" INDICATES FEW OR NO CLOUDS BELOW 12,000 FEET WITH NO
SIGNIFICANT WEATHER AND/OR OBSTRUCTIONS TO VISIBILITY.

OHZ001>008-015>018-024>027-034-035-043-044-270300-
   NORTHWEST OHIO

CITY           SKY/WX    TMP DP  RH WIND       PRES   REMARKS
DEFIANCE       CLOUDY    37  22  54 NW14      29.97S
FINDLAY        MOCLDY    36  26  67 NW12      29.93R
TOLEDO EXPRESS CLOUDY    36  23  59 W10       29.94S
TOLEDO EXEC    CLOUDY    37  22  54 NW12      29.95R
LIMA           CLEAR     37  25  61 N9        29.94R
$$

OHZ009>014-019>023-028>033-038-089-270300-
   NORTHEAST OHIO

CITY           SKY/WX    TMP DP  RH WIND       PRES   REMARKS
CLE-HOPKINS    CLOUDY    36  33  89 SW5       29.92S
CLE-LAKEFRONT  CLOUDY    38  32  79 SW8       29.89S
CUY CO. ARPT   CLOUDY    37  36  93 W8        29.90R
LORAIN-ELYRIA  CLOUDY    37  34  89 W6        29.90S
ASHTABULA      CLOUDY    35  32  88 W5        29.88S
AKRON-CANTON   CLOUDY    36  32  85 W5        29.89S
WOOSTER        CLOUDY    36  34  92 W3        29.90S
MANSFIELD      CLOUDY    36  31  82 W5        29.90S
YOUNGSTOWN     CLOUDY    35  34  96 W5        29.88R
$$

OHZ042-051>053-060>062-070>072-077>081-270300-
  SOUTHWEST OHIO

CITY           SKY/WX    TMP DP  RH WIND       PRES   REMARKS
CINC-COVINGTON CLOUDY    40  32  73 NW9       29.97R
CINC-LUNKEN    CLOUDY    41  34  76 NW5       29.98R
HAMILTON       CLOUDY    41  34  76 W3        29.98R
DAYTON         CLOUDY    39  29  67 N13       29.96R
WRIGHT-PAT AFB CLOUDY    40  32  73 NW13      29.94S
DAYTON GENERAL MOCLDY    40  33  76 W3        29.94S
WILMINGTON     MOCLDY    39  32  76 NW7       29.95R
$$

OHZ036-037-039>041-045>050-054>059-063>069-073>076-082>088-270300-
  CENTRAL AND SOUTHEAST OHIO

CITY           SKY/WX    TMP DP  RH WIND       PRES   REMARKS
COLUMBUS       MOCLDY    39  34  82 NW6       29.93R
OSU AIRPORT    MOCLDY    38  32  79 W3        29.93R
BOLTON FIELD   MOCLDY   N/A N/A N/A NW5       29.93F
RICKENBACK AFB MOCLDY    39  33  81 NW3       29.93S
NEWARK         CLOUDY    40  34  79 W3        29.93R
MARION         CLOUDY    38  32  79 NW6       29.93R
LANCASTER      CLOUDY    40  34  79 NW7       29.93S
ZANESVILLE     CLOUDY    39  33  79 NW6       29.92R
NEW PHILLY     CLOUDY    40  35  83 NW5       29.91S
$$



USA.gov is the U.S. government's official web portal to all federal, state and local government web resources and services.